Location: Philomena
(55.1756°N, 111.6233°W)
Time: 07:29:34
(UTC+00:00)

BlueWalker 3 - Visible Passes

Search period start: 08 June 2023 00:00
Search period end: 18 June 2023 00:00
Orbit: 494 x 513 km, 53.2° (Epoch: 07 June)

Date Brightness Start Highest point End Pass type
(mag) Time Alt. Az. Time Alt. Az. Time Alt. Az.
08 Jun 2.4 05:34:12 10° W 05:37:53 44° SSW 05:41:35 10° SE visible
08 Jun 3.7 07:13:21 10° WSW 07:15:44 16° SW 07:16:22 15° SSW visible
09 Jun 2.4 05:13:45 10° W 05:17:26 43° SSW 05:21:07 10° SE visible
09 Jun 3.8 06:52:57 10° WSW 06:55:16 15° SW 06:56:11 14° SSW visible
10 Jun 3.8 06:32:31 10° WSW 06:34:47 15° SW 06:36:04 13° SSW visible
11 Jun 3.9 06:12:06 10° WSW 06:14:19 15° SW 06:16:00 12° SSW visible
12 Jun 4.0 05:51:40 10° WSW 05:53:49 15° SW 05:55:59 10° S visible
13 Jun 4.1 05:31:13 10° WSW 05:33:19 14° SW 05:35:25 10° S visible
14 Jun 4.1 05:10:46 10° WSW 05:12:47 14° SW 05:14:50 10° S visible
